This is the latest recevied weather packets stored in our database for station/object KI5NXU. If no packets are shown the sender has not sent any weather packets the latest 10 day(s).
| Time | Temp. | Humidity | Pressure | Rain* | Wind** | Luminosity | Snow |
|---|---|---|---|---|---|---|---|
| 1788048583 | 37.78° C | 30% | 1013.3 hPa | 0 mm | - | 55 W/m² | - |
| 1788048280 | 37.78° C | 30% | 1013.3 hPa | 0 mm | - | 69 W/m² | - |
| 1788047978 | 38.33° C | 30% | 1013 hPa | 0 mm | - | 79 W/m² | - |
| 1788047672 | 38.33° C | 30% | 1013.3 hPa | 0 mm | - | 89 W/m² | - |
| 1788047371 | 38.33° C | 31% | 1013.4 hPa | 0 mm | - | 101 W/m² | - |
| 1788047066 | 38.33° C | 30% | 1013 hPa | 0 mm | - | 119 W/m² | - |
| 1788046771 | 39.44° C | 29% | 1013.2 hPa | 0 mm | - | 135 W/m² | - |
| 1788046460 | 38.89° C | 29% | 1013 hPa | 0 mm | - | 152 W/m² | - |
| 1788046159 | 38.89° C | 29% | 1013.3 hPa | 0 mm | - | 163 W/m² | - |
| 1788045854 | 39.44° C | 29% | 1012.9 hPa | 0 mm | - | 175 W/m² | - |
| 1788045549 | 39.44° C | 29% | 1013.4 hPa | 0 mm | - | 193 W/m² | - |
| 1788045245 | 39.44° C | 29% | 1013 hPa | 0 mm | - | 217 W/m² | - |
| 1788044941 | 40° C | 28% | 1013.2 hPa | 0 mm | - | 235 W/m² | - |
| 1788044639 | 40° C | 29% | 1013 hPa | 0 mm | - | 254 W/m² | - |
| 1788044338 | 38.89° C | 30% | 1013.2 hPa | 0 mm | - | 258 W/m² | - |
| 1788044029 | 40° C | 29% | 1013 hPa | 0 mm | - | 274 W/m² | - |
| 1788043724 | 39.44° C | 29% | 1013.4 hPa | 0 mm | - | 287 W/m² | - |
| 1788043420 | 38.89° C | 30% | 1013.4 hPa | 0 mm | - | 301 W/m² | - |
| 1788043119 | 38.89° C | 30% | 1013.2 hPa | 0 mm | - | 102 W/m² | - |
| 1788042815 | 38.89° C | 30% | 1013.4 hPa | 0 mm | - | 298 W/m² | - |
| 1788042513 | 38.89° C | 30% | 1013.3 hPa | 0 mm | - | 310 W/m² | - |
| 1788042208 | 39.44° C | 29% | 1013.5 hPa | 0 mm | - | 397 W/m² | - |
| 1788041905 | 40.56° C | 29% | 1013.4 hPa | 0 mm | - | 418 W/m² | - |
| 1788041605 | 40.56° C | 29% | 1013.4 hPa | 0 mm | - | 443 W/m² | - |
| 1788041304 | 40° C | 29% | 1013.4 hPa | 0 mm | - | 458 W/m² | - |
* Rain latest hour (hover to see other rain measurements)
** Current wind speed in m/s (hover to see current wind gust speed)